#timestamp,LO_Frequency,Hit,StdDev 
1582509615.7,286047001.2,N
1582509635.6,286046998.2,N
1582509655.4,286047002.4,N
1582509675.2,286047002.5,N
1582509695.1,286047002.3,N
1582509696.0,286047002.3,N
1582509715.8,286046999.8,N
1582509735.7,286047002.3,N
1582509755.5,286047000.7,N
1582509775.3,286046996.6,N
1582509795.2,286047000.0,N
1582509815.0,286046999.9,N
1582509815.9,286046999.9,N
1582509835.8,286047001.0,N
1582509855.6,286046999.4,N
1582509875.4,286047001.2,N
1582509895.3,286047001.0,N
1582509915.1,286046997.4,N
1582509935.9,286047001.1,N
1582509955.7,286047001.2,N
1582509975.7,286047001.9,N
1582509995.5,286047001.5,N
1582510015.4,286047000.2,N
1582510035.2,286047000.6,N
1582510055.0,286047000.9,N
1582510055.9,286047000.9,N
1582510075.8,286047001.1,N
1582510095.6,286047000.1,N
1582510115.4,286047000.1,N
1582510135.3,286047002.2,N
1582510155.1,286047000.3,N
1582510175.9,286047002.6,N
1582510195.7,286047002.0,N
1582510215.5,286047001.7,N
1582510235.4,286047003.5,N
1582510255.2,286047003.3,N
1582510275.1,286047003.4,N
1582510276.0,286047003.4,N
1582510295.8,286047006.0,Y
1582510315.6,286047003.6,P
1582510335.5,286047001.8,N
1582510355.3,286047000.5,N
1582510375.2,286047002.1,N
1582510395.9,286047000.7,N
1582510415.7,286047001.2,N
1582510435.6,286046998.5,N
1582510455.4,286047000.9,N
1582510475.2,286047000.8,N
1582510495.1,286047000.2,N
1582510496.0,286047000.2,N
1582510515.8,286046999.0,N
1582510535.7,286046998.4,N
1582510555.5,286047000.8,N
1582510575.3,286046997.0,N
1582510595.2,286046998.6,N
1582510615.0,286046998.1,N
1582510615.9,286046998.1,N
1582510635.8,286047000.3,N
1582510655.6,286047000.7,N
1582510675.4,286046998.7,N
1582510695.3,286046998.1,N
1582510715.1,286047000.6,N
1582510735.9,286047000.6,N
1582510755.7,286047000.0,N
1582510775.5,286047002.0,N
1582510795.4,286046999.8,N
1582510815.2,286047002.5,N
1582510835.0,286047002.1,N
1582510835.9,286047002.1,N
1582510855.8,286047000.8,N
1582510875.6,286047002.4,N
1582510895.5,286047003.8,N
1582510915.3,286047004.1,N
1582510935.1,286047003.6,N
1582510955.9,286047002.8,N
1582510975.7,286047002.3,N
1582510995.6,286047002.7,N
1582511015.4,286047001.5,N
1582511035.2,286047001.5,N
1582511055.1,286047001.9,N
1582511056.0,286047001.9,N
1582511075.8,286047001.5,N
1582511095.6,286047004.4,N
1582511115.5,286047001.0,N
1582511135.3,286047001.6,N
1582511155.2,286047002.7,N
1582511175.9,286047002.2,N
1582511195.7,286047003.2,N
1582511215.6,286047001.8,N
1582511235.4,286047003.8,N
1582511255.3,286047003.1,N
1582511275.1,286047003.6,Y
1582511276.0,286047003.6,P
1582511325.9,286046997.0,E
1582511335.8,286046998.4,N
1582511355.6,286046999.7,P
1582511375.5,286047001.1,N
1582511395.3,286046998.9,N
1582511415.1,286047000.0,N
1582511435.9,286047001.6,N
1582511455.7,286047000.3,N
1582511475.6,286047000.6,N
1582511495.4,286047002.1,N
1582511515.2,286047001.1,N
1582511535.1,286047002.3,N
1582511536.0,286047002.3,N
1582511555.8,286047002.5,N
1582511575.6,286047000.0,N
1582511595.5,286047000.7,N
1582511615.3,286047001.0,N
1582511635.2,286046999.7,N
1582511655.9,286047011.9,Y
1582511675.7,286047003.6,P
1582511695.6,286047005.0,P
1582511715.4,286047001.6,N
1582511735.3,286047003.9,N
1582511755.1,286047002.1,N
1582511775.8,286047002.8,N
1582511795.7,286047002.8,N
1582511815.5,286047000.5,N
1582511835.4,286046998.7,N
1582511855.2,286047000.8,N
1582511875.0,286047000.4,N
1582511875.9,286047000.4,N
1582511895.8,286047000.5,N
1582511915.6,286047000.3,N
1582511935.5,286046998.1,N
1582511955.3,286047000.9,N
1582511975.1,286046999.1,N
1582511995.9,286046999.6,N
1582512015.7,286046995.4,N
1582512035.6,286046995.4,N
1582512055.4,286046997.3,N
1582512075.2,286047000.5,N
1582512095.1,286047001.2,N
1582512096.0,286047001.2,N
1582512115.8,286046996.6,N
1582512135.7,286046996.7,N
1582512155.5,286046997.0,N
1582512175.3,286046995.0,N
1582512195.2,286046995.5,N
1582512215.0,286046995.6,N
1582512215.9,286046995.6,N
1582512235.8,286046994.5,N
1582512255.9,286046993.6,N
1582512275.7,286046995.7,N
1582512295.6,286046995.9,N
1582512315.4,286046993.9,N
1582512335.3,286046996.1,N
1582512355.1,286046995.5,N
1582512356.0,286046995.5,N
1582512375.8,286046995.9,N
1582512395.7,286046993.9,N
1582512415.5,286046993.8,N
1582512435.3,286046996.3,N
1582512455.2,286046993.8,N
1582512475.0,286046993.5,N
1582512475.9,286046993.5,N
1582512495.8,286046995.8,N
1582512515.6,286046995.5,N
1582512535.4,286046994.1,N
1582512555.3,286046991.8,Y
1582512575.1,286046996.8,P
1582512595.9,286046999.3,N
1582512615.3,286046996.5,N
1582512635.1,286046997.5,N
1582512655.9,286046995.3,Y
1582512675.7,286046998.6,P
1582512695.5,286047000.6,N
1582512715.4,286046998.8,N
1582512735.2,286046996.5,N
1582512755.0,286046997.2,N
1582512755.9,286046997.2,N
1582512775.8,286046996.7,N
1582512795.6,286046999.7,N
1582512815.5,286047001.6,N
1582512835.3,286047003.8,N
1582512855.1,286047001.7,N
1582512875.9,286047000.4,N
1582512895.7,286047011.9,Y
1582512915.6,286046998.7,P
1582512935.4,286046998.9,P
1582512955.2,286047001.1,P
1582512975.1,286047001.1,N
1582512976.0,286047001.1,N
1582512995.8,286047001.5,N
1582513015.7,286047002.5,N
1582513035.5,286047000.6,N
1582513055.3,286047000.0,N
1582513075.2,286047001.7,N
1582513095.0,286047002.2,N
1582513095.9,286047002.2,N
1582513115.7,286047002.3,N
1582513135.6,286046999.7,N
1582513155.4,286047001.6,N
1582513175.3,286047002.0,N
1582513195.1,286047003.8,Y
